Flag for Iceland Weather past 2 weeks in Reykjavik, Iceland

Now
50 °F

Partly sunny.


Feels Like: 50 °F
Forecast: N/A
Wind: No wind

Location: Reykjavik Airport

Current Time: Sep 1, 2015 at 8:55:43 PM

Latest Report: Sep 1, 2015 at 8:00 PM


Visibility: N/A

Pressure: 30.36 "Hg

Humidity: 88%

Dew point: 46 °F

Location of ReykjavikLocation

Historic Weather in Reykjavik — Graph

°F

Reykjavik temperature yesterday

Maximum temperature yesterday: 50 °F (at 11:00 AM)
Minimum temperature yesterday: 46 °F (at 12:00 AM)
Average temperature yesterday: 48 °F

Past Weeks' High & Low Weather Summary

 TemperatureHumidityPressure
High70 °F (Aug 25, 2:00 PM)94% (Aug 21, 11:00 PM)30.36 "Hg (Aug 21, 11:00 PM)
Low41 °F (Aug 29, 3:00 AM)43% (Aug 25, 2:00 PM)29.15 "Hg (Aug 27, 5:00 AM)
Average52 °F74%29.71 "Hg
* Reported Aug 17 7:00 PM — Sep 1 7:00 PM, Reykjavik, Weather by CustomWeather, © 2015

Note: Actual official high and low records may vary slightly from our data, if they occured in-between our weather recording intervals... More about our weather records

Advertising

Reykjavik weather history for previous 24 hours

 ConditionsComfort  
Time TempWeatherWind HumidityBarometerVisibility
7:00 PM
Tue, Sep 1
50 °FMostly cloudy.3 mph88%30.36 "HgN/A
6:00 PM50 °FCool.7 mph88%30.36 "Hg6 mi
5:00 PM52 °FMostly cloudy.3 mph77%30.36 "HgN/A
4:00 PM52 °FMostly cloudy.5 mph72%30.36 "HgN/A
3:00 PM52 °FMostly cloudy.2 mph67%30.36 "HgN/A
2:00 PM52 °FBroken clouds.3 mph67%30.33 "HgN/A
1:00 PM52 °FBroken clouds.3 mph72%30.33 "HgN/A
12:00 PM52 °FPartly sunny.2 mph77%30.33 "HgN/A
11:00 AM50 °FPartly sunny.No wind82%30.33 "HgN/A
10:00 AM50 °FPartly sunny.3 mph88%30.33 "HgN/A
9:00 AM48 °FBroken clouds.No wind87%30.33 "HgN/A
8:00 AM48 °FPartly sunny.No wind87%30.30 "HgN/A
7:00 AM48 °FBroken clouds.No wind87%30.30 "HgN/A
6:00 AM48 °FLight rain. Mostly cloudy.No wind87%30.30 "HgN/A
5:00 AM48 °FLight rain. Mostly cloudy.2 mph87%30.30 "HgN/A
3:00 AM48 °FPartly cloudy.No wind82%30.30 "HgN/A
2:00 AM48 °FPassing clouds.No wind82%30.30 "HgN/A
1:00 AM48 °FPassing clouds.5 mph76%30.30 "HgN/A
12:00 AM48 °FPartly cloudy.No wind82%30.27 "HgN/A
11:00 PM
Mon, Aug 31
48 °FMostly cloudy.3 mph82%30.27 "HgN/A
10:00 PM48 °FPartly cloudy.6 mph76%30.27 "HgN/A
9:00 PM48 °FPartly cloudy.3 mph82%30.27 "HgN/A
8:00 PM48 °FDrizzle. Broken clouds.8 mph82%30.27 "HgN/A
Weather by CustomWeather, © 2015

See weather overviewHow to use our weather pages